CAPE
130 705 666 753 792 898 816 552 704 535 309 104 15 2 0 0 0 0 3 8 14 0 0 2 52 45 41 21 4 0 0 0 0 0 0 0 0 0 0 0 0 0 0
342 712 709 743 714 584 227 278 422 456 181 68 31 10 3 0 0 0 6 24 57 16 14 42 56 43 28 36 1 0 0 0 0 0 0 0 0 0 0 0 0 0 0
561 619 641 597 429 430 397 500 513 414 200 79 26 9 3 0 0 0 15 25 28 47 60 80 60 16 3 0 0 0 0 0 0 0 0 0 0 0 0 0 0 19 0
519 537 462 426 494 508 510 428 349 344 266 98 21 9 4 0 0 0 7 7 8 3 3 1 0 0 0 0 0 0 0 0 0 0 0 0 0 0 0 0 0 0 12
496 432 389 347 400 346 227 180 186 178 163 98 55 7 2 0 0 0 2 5 1 2 0 0 0 0 0 0 0 0 0 0 0 0 0 0 0 8 17 10 0 0 0
466 425 443 389 373 178 97 65 53 114 164 115 59 1 0 0 0 0 0 1 0 0 0 0 0 0 0 0 0 0 4 0 0 0 0 0 13 32 64 46 50 73 68
437 443 485 422 253 134 105 52 48 190 276 65 0 0 0 0 0 0 0 0 0 0 0 0 0 0 0 0 0 4 0 0 0 0 0 6 14 35 38 52 50 71 80
463 498 526 369 203 162 62 54 189 289 84 15 0 0 1 2 0 0 0 0 0 1 2 2 0 0 0 0 0 0 0 0 0 0 0 0 14 25 53 24 24 7 5
547 449 499 308 236 191 93 152 324 240 66 2 16 27 22 19 3 0 0 0 1 4 13 14 1 8 2 0 0 0 0 0 0 0 0 0 19 32 2 11 6 5 0
534 399 338 328 281 208 141 239 345 327 90 10 26 27 21 21 39 0 0 0 7 24 37 43 50 0 0 0 0 0 0 0 0 0 0 0 44 2 0 27 25 4 1
583 427 427 339 283 161 147 80 295 350 141 26 69 63 28 29 70 60 0 0 18 47 69 109 20 0 0 0 0 0 0 0 0 0 0 29 16 2 23 26 6 0 2
747 509 545 410 283 200 147 45 105 285 116 94 51 35 6 8 60 105 6 0 41 83 43 29 0 0 0 0 0 0 0 0 0 0 0 24 13 2 21 5 0 0 2
870 631 619 473 339 238 160 52 29 263 108 64 48 0 9 74 74 101 4 3 40 61 0 0 0 0 0 0 0 0 0 0 0 0 0 18 4 2 17 2 0 0 0
928 851 757 571 424 309 194 75 23 58 122 65 38 0 11 93 121 73 6 0 4 0 0 0 0 0 0 0 0 0 0 0 0 0 0 0 0 0 0 0 0 0 0
1025 912 844 713 573 418 263 116 28 6 8 35 38 25 0 34 69 27 6 0 0 0 0 0 0 0 0 0 0 0 0 0 0 0 0 0 0 0 0 0 0 0 0
936 1046 953 889 703 544 412 206 95 23 11 0 0 18 9 0 41 40 32 2 0 0 0 0 0 0 0 0 0 0 0 0 0 0 0 0 0 0 0 0 0 0 0
107 588 993 1000 823 708 564 376 161 81 36 0 0 0 10 0 0 19 46 7 0 0 0 0 0 0 0 0 0 0 0 0 0 0 0 0 0 0 0 0 0 0 0
0 0 340 1019 1014 874 700 517 313 115 65 10 0 0 0 0 0 0 0 2 0 0 0 0 0 0 0 0 0 0 0 0 0 0 0 0 0 0 0 0 0 0 0
0 0 0 190 995 1084 831 679 448 204 98 40 5 0 0 0 0 0 0 0 0 0 0 0 0 0 0 0 0 0 0 0 0 0 0 0 0 0 0 0 0 0 0
0 0 0 0 129 929 938 693 492 277 177 71 95 25 0 0 0 0 0 0 0 0 0 0 0 0 0 0 0 0 0 0 0 0 0 0 0 0 0 0 0 0 0
0 0 0 0 0 246 734 699 635 485 428 229 150 126 22 0 0 0 0 0 0 0 0 0 0 0 0 0 0 0 0 0 0 0 0 0 0 0 0 0 0 0 0
0 0 0 0 0 23 457 704 726 607 428 457 282 124 14 0 0 0 0 0 0 0 0 0 0 0 0 0 0 0 0 0 0 0 0 0 0 0 0 0 0 0 0
0 0 0 0 0 0 255 661 366 410 68 194 238 218 16 0 0 0 0 0 0 0 0 0 0 0 0 0 0 0 0 0 0 0 0 0 0 0 0 0 0 0 0
0 0 0 0 0 0 6 388 379 448 433 340 317 269 24 0 0 0 0 0 0 0 0 0 0 0 0 0 0 0 0 0 0 0 0 0 0 0 0 0 0 0 0
0 0 0 0 0 0 0 301 370 505 511 315 328 114 0 0 0 0 0 0 0 0 0 0 0 0 0 0 0 0 0 0 0 0 0 0 0 0 0 0 0 0 0
0 0 0 0 0 0 0 0 222 323 163 157 133 13 0 0 0 0 0 0 0 0 0 0 0 0 0 0 0 0 0 0 0 0 0 0 0 0 0 0 0 0 0
CIN
-368 -195 -182 -153 -146 -124 -119 -132 -90 -81 -97 -183 -86 -0 -0 -0 -0 -0 -0 -0 -1 -0 -0 -0 -0 -1 -7 -8 -11 -0 -0 -0 -0 -0 -0 -0 -0 -0 -0 -0 -0 -0 -0
-323 -207 -177 -154 -151 -157 -204 -165 -109 -93 -158 -156 -172 -2 -0 -0 -0 -0 -0 -0 -0 -3 -8 -1 -32 -2 -5 -4 -2 -0 -0 -0 -0 -0 -0 -0 -0 -0 -0 -0 -0 -0 -0
-268 -219 -188 -167 -183 -171 -157 -116 -104 -105 -142 -167 -166 -2 -0 -0 -0 -0 -0 -0 -1 -1 -0 -62 -0 -7 -7 -0 -0 -0 -0 -0 -0 -0 -0 -0 -0 -0 -0 -0 -0 -4 -0
-281 -246 -225 -200 -168 -150 -129 -127 -127 -117 -129 -168 -132 -0 -0 -0 -0 -0 -0 -0 -2 -1 -0 -0 -0 -0 -0 -0 -0 -0 -0 -0 -0 -0 -0 -0 -0 -0 -0 -0 -0 -0 -1
-283 -273 -251 -222 -184 -183 -203 -200 -182 -167 -156 -179 -199 -0 -0 -0 -0 -0 -0 -2 -0 -0 -0 -0 -0 -0 -0 -0 -0 -0 -0 -0 -0 -0 -0 -0 -0 -2 -0 -0 -0 -0 -0
-276 -263 -242 -226 -206 -249 -297 -321 -298 -217 -176 -185 -223 -0 -0 -0 -0 -0 -0 -0 -0 -0 -0 -0 -0 -0 -0 -0 -0 -0 -11 -0 -0 -0 -0 -0 -9 -0 -115 -149 -138 -126 -105
-268 -242 -216 -213 -249 -287 -297 -355 -330 -194 -165 -253 -0 -0 -0 -0 -0 -0 -0 -0 -0 -0 -0 -0 -0 -0 -0 -0 -0 -4 -0 -0 -0 -0 -0 -15 -6 -0 -38 -125 -0 -62 -81
-232 -207 -195 -220 -264 -277 -363 -341 -217 -173 -257 -198 -0 -0 -0 -0 -0 -0 -0 -0 -0 -0 -0 -0 -0 -0 -0 -0 -0 -0 -0 -0 -0 -0 -0 -0 -5 -0 -122 -0 -0 -0 -1
-186 -203 -181 -226 -241 -258 -341 -280 -171 -201 -296 -189 -337 -305 -287 -253 -52 -0 -0 -0 -0 -0 -111 -96 -0 -0 -2 -0 -0 -0 -0 -0 -0 -0 -0 -0 -2 -28 -0 -0 -0 -0 -0
-167 -201 -219 -220 -228 -249 -299 -223 -172 -186 -294 -394 -334 -317 -301 -280 -226 -0 -0 -0 -172 -156 -127 -105 -84 -0 -0 -0 -0 -0 -0 -0 -0 -0 -0 -0 -193 -0 -0 -0 -0 -0 -0
-149 -193 -189 -216 -226 -273 -290 -360 -194 -173 -262 -350 -302 -292 -302 -295 -231 -217 -0 -0 -195 -135 -119 -90 -91 -0 -0 -0 -0 -0 -0 -0 -0 -0 -0 -1 -0 -0 -0 -0 -0 -0 -0
-145 -171 -155 -189 -230 -260 -289 -402 -336 -203 -289 -308 -334 -339 -152 -372 -283 -224 -238 -0 -193 -138 -138 -132 -0 -0 -0 -0 -0 -0 -0 -0 -0 -0 -0 -1 -0 -0 -0 -0 -0 -0 -0
-142 -149 -151 -176 -207 -246 -306 -404 -429 -225 -317 -343 -351 -29 -390 -302 -287 -232 -320 -316 -222 -182 -0 -0 -0 -0 -0 -0 -0 -0 -0 -0 -0 -0 -0 -2 -0 -0 -0 -0 -0 -0 -0
-131 -151 -143 -166 -186 -229 -275 -386 -457 -402 -314 -349 -372 -3 -363 -297 -258 -274 -323 -0 -276 -0 -0 -0 -0 -0 -0 -0 -0 -0 -0 -0 -0 -0 -0 -0 -0 -0 -0 -0 -0 -0 -0
-85 -115 -141 -146 -181 -201 -232 -326 -430 -480 -481 -417 -392 -406 -0 -364 -311 -341 -189 -0 -0 -0 -0 -0 -0 -0 -0 -0 -0 -0 -0 -0 -0 -0 -0 -0 -0 -0 -0 -0 -0 -0 -0
-80 -83 -102 -122 -155 -166 -200 -259 -348 -425 -463 -0 -0 -447 -423 -0 -320 -308 -312 -162 -0 -0 -0 -0 -0 -0 -0 -0 -0 -0 -0 -0 -0 -0 -0 -0 -0 -0 -0 -0 -0 -0 -0
-130 -104 -88 -98 -117 -145 -176 -209 -247 -314 -376 -0 -0 -0 -455 -0 -0 -333 -299 -153 -0 -0 -0 -0 -0 -0 -0 -0 -0 -0 -0 -0 -0 -0 -0 -0 -0 -0 -0 -0 -0 -0 -0
-0 -0 -116 -80 -82 -98 -131 -166 -196 -256 -308 -260 -0 -0 -0 -0 -0 -0 -0 -161 -0 -0 -0 -0 -0 -0 -0 -0 -0 -0 -0 -0 -0 -0 -0 -0 -0 -0 -0 -0 -0 -0 -0
-0 -0 -0 -76 -76 -86 -111 -124 -160 -205 -231 -301 -143 -0 -0 -0 -0 -0 -0 -0 -0 -0 -0 -0 -0 -0 -0 -0 -0 -0 -0 -0 -0 -0 -0 -0 -0 -0 -0 -0 -0 -0 -0
-0 -0 -0 -0 -110 -90 -106 -108 -124 -156 -179 -243 -215 -281 -0 -0 -0 -0 -0 -0 -0 -0 -0 -0 -0 -0 -0 -0 -0 -0 -0 -0 -0 -0 -0 -0 -0 -0 -0 -0 -0 -0 -0
-0 -0 -0 -0 -0 -120 -108 -90 -94 -124 -147 -177 -186 -214 -223 -0 -0 -0 -0 -0 -0 -0 -0 -0 -0 -0 -0 -0 -0 -0 -0 -0 -0 -0 -0 -0 -0 -0 -0 -0 -0 -0 -0
-0 -0 -0 -0 -0 -114 -123 -131 -116 -129 -143 -158 -173 -188 -223 -0 -0 -0 -0 -0 -0 -0 -0 -0 -0 -0 -0 -0 -0 -0 -0 -0 -0 -0 -0 -0 -0 -0 -0 -0 -0 -0 -0
-0 -0 -0 -0 -0 -0 -129 -113 -131 -135 -218 -155 -155 -168 -289 -0 -0 -0 -0 -0 -0 -0 -0 -0 -0 -0 -0 -0 -0 -0 -0 -0 -0 -0 -0 -0 -0 -0 -0 -0 -0 -0 -0
-0 -0 -0 -0 -0 -0 -10 -89 -111 -102 -94 -107 -123 -174 -214 -0 -0 -0 -0 -0 -0 -0 -0 -0 -0 -0 -0 -0 -0 -0 -0 -0 -0 -0 -0 -0 -0 -0 -0 -0 -0 -0 -0
-0 -0 -0 -0 -0 -0 -0 -90 -90 -80 -93 -127 -141 -166 -0 -0 -0 -0 -0 -0 -0 -0 -0 -0 -0 -0 -0 -0 -0 -0 -0 -0 -0 -0 -0 -0 -0 -0 -0 -0 -0 -0 -0
-0 -0 -0 -0 -0 -0 -0 -0 -111 -68 -99 -117 -182 -203 -0 -0 -0 -0 -0 -0 -0 -0 -0 -0 -0 -0 -0 -0 -0 -0 -0 -0 -0 -0 -0 -0 -0 -0 -0 -0 -0 -0 -0
Wind_Speed
5 10 11 12 12 13 13 12 12 12 12 12 12 12 13 14 14 14 14 15 15 14 14 13 12 13 14 13 12 13 13 14 14 15 16 17 18 18 19 17 18 18 18
10 10 12 11 11 12 12 12 12 12 12 12 12 12 13 14 14 14 13 14 15 14 14 13 14 13 14 14 13 14 13 13 14 15 15 17 18 18 18 18 18 18 17
9 9 10 9 10 10 10 11 12 12 12 13 13 13 13 14 14 14 13 13 13 15 15 14 13 13 14 14 14 14 14 14 15 15 15 16 18 18 18 18 19 18 17
10 9 8 9 10 9 9 10 10 11 12 12 12 13 13 14 14 14 13 13 13 13 13 13 13 13 14 15 14 14 14 15 15 16 15 16 18 19 19 18 19 19 19
7 7 8 9 9 9 9 10 10 11 11 12 13 13 14 14 14 14 13 13 12 13 13 12 13 13 14 14 14 14 15 16 16 15 15 16 18 19 19 19 19 19 18
3 5 7 7 7 7 8 9 9 10 11 12 13 14 14 15 15 15 14 13 12 12 12 12 13 13 13 13 14 15 16 17 17 15 14 16 18 20 19 20 21 20 19
2 3 4 5 6 6 7 8 9 10 11 12 12 13 14 14 15 15 15 14 14 13 13 13 13 13 13 14 15 16 16 16 16 15 16 16 18 20 20 20 20 21 21
3 3 3 5 5 4 5 7 8 9 10 11 12 13 13 14 14 14 14 14 14 13 13 13 13 14 14 15 16 16 16 16 15 15 16 17 18 19 20 20 20 21 21
2 2 2 2 1 2 4 5 6 7 8 9 11 12 12 13 13 13 13 13 13 13 13 13 13 14 14 15 16 16 15 14 15 16 17 18 18 18 19 19 19 20 21
2 3 3 3 2 0 2 3 3 5 6 7 8 9 10 10 11 11 11 12 12 12 12 12 13 14 15 16 16 16 15 15 16 17 18 18 17 18 19 18 18 19 20
4 5 5 4 3 3 2 1 0 2 3 4 5 6 7 7 8 9 10 10 11 11 11 12 13 14 15 16 16 16 16 17 17 18 18 16 17 19 18 18 19 20 19
6 6 7 7 6 5 6 4 3 2 1 1 2 3 4 5 5 6 7 8 9 10 11 11 12 13 15 16 17 18 17 17 18 18 18 16 17 18 18 19 20 20 19
7 6 7 8 8 7 7 6 5 5 4 3 2 3 4 5 3 3 5 6 7 8 10 11 12 13 14 15 16 17 17 17 18 18 18 16 17 18 18 19 19 19 19
9 8 7 7 7 8 8 8 7 6 6 6 6 5 5 5 3 3 3 4 5 7 9 10 11 13 14 15 16 16 16 17 17 18 18 16 17 17 17 18 18 19 19
15 12 10 9 9 8 9 9 9 9 8 8 7 7 6 6 5 3 4 4 5 6 8 9 11 13 14 15 16 16 16 15 16 16 17 16 16 16 17 17 18 19 20
18 15 14 13 11 11 11 11 10 10 10 8 8 7 7 7 7 6 6 6 5 5 7 8 9 12 14 15 16 17 16 15 15 15 15 15 15 16 16 17 18 19 20
17 19 17 15 15 14 13 12 12 12 11 10 10 9 9 8 7 7 8 6 5 5 7 8 10 13 14 15 15 15 15 13 13 13 14 14 15 15 16 17 19 19 21
23 20 20 20 19 18 17 16 15 14 13 11 11 10 10 9 8 8 9 7 5 6 7 8 10 12 14 14 15 14 14 13 12 12 12 13 14 14 15 17 19 20 21
27 26 24 21 21 21 21 20 19 18 16 14 12 11 10 9 9 9 9 8 7 6 7 7 11 13 14 15 14 14 14 13 12 10 10 12 12 14 15 17 19 20 22
37 33 28 24 21 21 24 25 24 23 21 18 15 14 12 11 10 10 9 9 8 9 8 9 11 14 15 14 15 15 15 14 11 9 9 11 12 13 15 17 19 20 23
41 39 34 29 25 23 23 25 27 24 23 23 21 19 16 14 13 11 11 9 9 10 10 9 12 15 16 14 15 17 16 16 13 11 11 11 12 13 15 18 19 22 25
40 39 37 35 31 28 27 25 27 28 28 25 24 23 19 16 16 14 13 12 10 10 10 10 11 14 17 12 16 17 17 17 15 14 13 12 13 14 16 18 21 24 26
42 39 38 34 31 32 30 29 30 29 31 28 26 25 22 20 19 18 16 14 13 11 11 10 10 11 13 14 14 16 18 17 15 15 16 15 15 15 16 18 22 24 27
40 39 36 34 33 29 28 32 32 31 31 31 29 27 25 23 22 20 19 16 15 14 13 12 11 12 13 14 16 16 17 16 18 18 16 15 16 16 17 21 23 26 27
29 30 32 32 31 29 27 28 30 32 33 31 31 28 27 25 23 23 21 20 18 17 16 14 13 14 14 14 16 17 18 18 17 19 21 19 18 18 20 22 26 26 26
26 26 26 28 31 30 29 29 31 33 34 32 31 31 30 28 26 24 23 22 21 21 19 17 15 15 15 15 16 16 18 19 19 20 21 21 21 22 22 24 25 25 27
Wind_Direction
76 102 97 91 83 76 68 63 57 57 54 48 38 27 23 19 16 16 19 18 21 32 37 51 54 56 42 29 18 9 1 0 1 359 357 355 355 354 355 4 1 1 1
109 104 104 96 87 82 75 68 63 64 56 47 37 29 20 14 11 13 20 24 23 36 41 51 65 42 30 23 14 4 3 6 4 2 0 358 355 357 359 2 1 1 3
112 107 104 95 87 79 71 67 65 63 58 55 46 38 26 16 14 19 27 31 29 28 42 45 41 30 20 10 6 12 17 12 5 4 10 7 4 2 2 1 358 2 5
117 110 103 101 95 82 68 61 60 58 58 56 50 42 33 23 21 23 30 36 35 31 31 28 20 16 11 8 11 14 12 6 3 8 17 13 5 5 7 6 1 359 359
119 114 109 108 98 87 76 71 69 63 59 57 55 45 33 32 32 32 32 36 35 31 30 24 17 9 6 10 13 10 2 354 350 358 13 9 6 5 8 7 5 3 0
121 123 118 112 100 85 76 71 70 71 69 66 59 54 52 47 42 41 40 41 38 32 27 22 17 16 14 12 7 1 353 350 353 8 15 10 6 359 6 6 5 3 359
150 141 126 117 104 87 75 71 76 81 76 68 62 58 57 51 51 48 48 46 44 41 35 31 27 24 18 10 2 355 352 352 358 9 9 10 6 7 8 9 8 3 357
160 164 146 127 113 84 66 70 82 79 76 72 72 72 66 58 54 53 52 50 46 41 39 35 30 24 15 6 0 358 357 357 5 3 1 3 8 10 13 13 11 5 359
227 198 189 172 140 72 65 81 85 82 74 77 83 81 75 70 63 59 55 49 43 37 33 28 23 15 8 1 358 355 356 5 359 357 357 360 8 11 10 12 11 8 359
230 220 213 213 213 343 38 87 83 94 79 85 84 80 76 73 72 61 58 53 46 40 32 24 15 9 5 356 355 356 0 356 351 351 352 357 7 6 7 12 10 6 3
260 241 230 231 235 257 288 316 15 97 81 86 72 75 69 62 65 63 59 54 48 44 32 24 17 10 5 358 360 356 354 349 348 348 350 1 1 1 7 6 2 355 359
246 235 240 242 245 258 279 283 279 288 315 20 35 40 41 53 73 72 60 44 40 35 28 26 20 11 2 358 353 350 351 350 347 346 347 356 359 358 2 0 356 356 355
246 241 234 242 253 252 265 267 267 269 272 278 295 330 345 355 43 51 38 29 17 15 6 9 8 5 2 358 354 352 351 349 348 347 349 355 354 356 358 357 358 357 357
241 233 232 234 236 245 262 257 258 256 258 265 275 287 306 322 338 353 7 11 8 1 357 359 360 360 358 357 356 355 354 352 350 348 349 355 357 357 359 359 358 356 355
266 256 242 242 237 242 250 259 258 255 256 257 262 271 278 287 290 302 323 336 349 354 345 350 351 352 351 352 351 352 353 354 353 353 353 358 1 2 2 1 358 355 353
266 260 258 248 247 248 249 257 260 259 259 250 248 248 248 271 279 286 297 310 327 343 345 344 347 348 346 345 344 346 349 353 355 356 356 358 0 1 1 359 355 353 350
266 266 261 254 251 245 244 254 261 268 265 255 253 247 242 252 258 270 281 290 304 324 335 342 343 342 342 343 344 347 350 353 354 356 356 356 357 358 358 354 351 350 347
276 268 263 261 258 254 255 259 262 266 262 257 254 256 242 235 239 262 275 275 289 308 320 330 335 338 340 342 344 347 349 351 353 353 357 358 358 358 355 351 348 347 346
273 273 271 265 259 255 260 263 264 265 265 265 262 256 247 237 240 251 266 271 276 293 305 320 327 332 332 335 340 343 346 349 354 355 355 356 357 356 355 352 349 346 343
272 272 271 267 261 261 262 264 267 269 268 270 262 258 254 250 243 250 257 264 264 280 292 308 317 325 328 332 335 336 341 344 350 354 354 353 353 352 350 348 346 344 340
272 271 270 267 265 264 262 261 263 261 263 266 266 264 255 248 246 245 255 256 255 263 273 291 310 315 321 328 329 330 331 336 341 342 344 345 344 345 344 343 343 339 337
274 273 272 267 264 262 262 262 265 264 265 263 265 267 257 249 250 250 251 250 246 259 268 276 294 310 316 320 323 327 326 326 328 330 334 336 337 340 340 341 339 339 337
273 273 272 274 270 264 261 265 269 269 270 265 264 264 259 256 252 249 251 251 248 251 251 255 276 295 306 314 316 323 324 322 328 326 325 327 330 333 338 339 339 339 336
277 274 274 274 274 272 266 262 261 261 261 262 262 262 261 259 257 255 253 253 246 254 257 257 269 285 300 302 312 314 320 326 321 322 326 325 327 327 330 332 333 334 336
293 286 277 276 276 275 271 266 265 263 266 266 262 261 259 261 259 258 257 255 252 259 264 263 264 275 286 295 302 309 313 317 321 318 318 321 320 322 324 327 330 333 335
298 296 290 280 276 275 274 270 267 267 268 266 264 262 261 261 260 258 258 257 258 261 263 265 266 269 277 289 294 301 306 310 310 314 313 316 318 321 322 324 327 329 331